FW8901 Weather Reports


Display with metric or nautical units.
time (UTC)temp
F
wind
direction
speed
MPH
gust
MPH
rain 1hr
in
rain 24hr
in
rain mn
in
humidity
%
barometer
mb
20260503001046 56 0.0 0.0 0.00 0.00 0.00 44 1012.5
20260503000547 56 0.0 0.0 0.00 0.00 0.00 43 1012.5
20260503000054 57 0.0 0.0 0.00 0.00 0.00 43 1012.4
20260502235547 57 0.0 0.0 0.00 0.00 0.00 43 1012.4
20260502235059 57 0.0 0.0 0.00 0.00 0.00 43 1012.2
20260502234601 57 0.0 0.0 0.00 0.00 0.00 43 1012.2
20260502234051 57 0.0 0.0 0.00 0.00 0.00 42 1012.0
20260502233548 57 0.0 0.0 0.00 0.00 0.00 42 1011.9
20260502233101 57 0.0 0.0 0.00 0.00 0.00 41 1011.8
20260502232546 57 0.0 0.0 0.00 0.00 0.00 40 1011.9
20260502232046 57 0.0 0.0 0.00 0.00 0.00 41 1011.8
20260502231555 58 0.0 0.0 0.00 0.00 0.00 40 1011.8
20260502231048 58 0.0 0.0 0.00 0.00 0.00 41 1011.8
20260502230547 58 0.0 0.0 0.00 0.00 0.00 42 1011.7
20260502230058 58 0.0 0.0 0.00 0.00 0.00 42 1011.6
20260502225546 58 0.0 0.0 0.00 0.00 0.00 42 1011.5
20260502225047 58 0.0 0.0 0.00 0.00 0.00 41 1011.6
20260502224609 58 0.0 0.0 0.00 0.00 0.00 41 1011.6
20260502224047 58 0.0 0.0 0.00 0.00 0.00 42 1011.6
20260502223547 58 0.0 0.0 0.00 0.00 0.00 40 1011.5
20260502223105 58 0.0 0.0 0.00 0.00 0.00 42 1011.5
20260502222547 58 0.0 0.0 0.00 0.00 0.00 43 1011.5
20260502222046 58 0.0 0.0 0.00 0.00 0.00 40 1011.4
20260502221558 58 0.0 0.0 0.00 0.00 0.00 40 1011.4
20260502221052 58 0.0 0.0 0.00 0.00 0.00 40 1011.5
20260502220550 58 0.0 0.0 0.00 0.00 0.00 41 1011.5
20260502220109 58 0.0 0.0 0.00 0.00 0.00 39 1011.4
20260502215547 59 0.0 0.0 0.00 0.00 0.00 40 1011.7
20260502215052 59 0.0 0.0 0.00 0.00 0.00 38 1011.6
20260502214554 59 0.0 0.0 0.00 0.00 0.00 37 1011.7
20260502214109 59 0.0 0.0 0.00 0.00 0.00 37 1011.6
20260502213547 59 0.0 0.0 0.00 0.00 0.00 40 1011.6
20260502213125 60 0.0 0.0 0.00 0.00 0.00 39 1011.5
20260502212549 60 0.0 0.0 0.00 0.00 0.00 39 1011.5
20260502212049 60 0.0 0.0 0.00 0.00 0.00 38 1011.5
20260502211629 60 0.0 0.0 0.00 0.00 0.00 38 1011.3
20260502211049 60 0.0 0.0 0.00 0.00 0.00 38 1011.4
20260502210546 59 0.0 0.0 0.00 0.00 0.00 38 1011.5
20260502210110 59 0.0 0.0 0.00 0.00 0.00 40 1011.6
20260502205546 60 0.0 0.0 0.00 0.00 0.00 37 1011.5
20260502205047 60 0.0 0.0 0.00 0.00 0.00 36 1011.6
20260502204556 61 0.0 0.0 0.00 0.00 0.00 38 1011.5
20260502204052 61 0.0 0.0 0.00 0.00 0.00 39 1011.5
20260502203547 60 0.0 0.0 0.00 0.00 0.00 38 1011.6
20260502203102 60 0.0 0.0 0.00 0.00 0.00 37 1011.5
20260502202547 62 0.0 0.0 0.00 0.00 0.00 38 1011.6
20260502202048 61 0.0 0.0 0.00 0.00 0.00 38 1011.6
20260502201600 61 0.0 0.0 0.00 0.00 0.00 40 1011.6
20260502201050 60 0.0 0.0 0.00 0.00 0.00 39 1011.5
20260502200547 59 0.0 0.0 0.00 0.00 0.00 41 1011.5
20260502200057 59 0.0 0.0 0.00 0.00 0.00 38 1011.6
20260502195550 60 0.0 0.0 0.00 0.00 0.00 39 1011.5
20260502195048 60 0.0 0.0 0.00 0.00 0.00 38 1011.6
20260502194606 60 0.0 0.0 0.00 0.00 0.00 39 1011.6
20260502194050 60 0.0 0.0 0.00 0.00 0.00 38 1011.7
20260502193552 61 0.0 0.0 0.00 0.00 0.00 41 1011.8
20260502193055 60 0.0 0.0 0.00 0.00 0.00 39 1011.8
20260502192549 61 0.0 0.0 0.00 0.00 0.00 36 1011.9
20260502192048 62 0.0 0.0 0.00 0.00 0.00 41 1011.9
20260502191556 61 0.0 0.0 0.00 0.00 0.00 40 1011.9
20260502191048 60 0.0 0.0 0.00 0.00 0.00 39 1012.0
20260502190549 59 0.0 0.0 0.00 0.00 0.00 39 1012.1
20260502190058 59 0.0 0.0 0.00 0.00 0.00 40 1012.3
20260502185545 61 0.0 0.0 0.00 0.00 0.00 36 1012.4
20260502185048 61 0.0 0.0 0.00 0.00 0.00 39 1012.4
20260502184601 62 0.0 0.0 0.00 0.00 0.00 39 1012.6
20260502184047 59 0.0 0.0 0.00 0.00 0.00 42 1012.7
20260502183545 59 0.0 0.0 0.00 0.00 0.00 43 1012.8
20260502183106 58 0.0 0.0 0.00 0.00 0.00 42 1012.9
20260502182546 58 0.0 0.0 0.00 0.00 0.00 46 1012.9
20260502182046 58 0.0 0.0 0.00 0.00 0.00 44 1013.1
20260502181552 57 0.0 0.0 0.00 0.00 0.00 45 1013.2
20260502181047 57 0.0 0.0 0.00 0.00 0.00 44 1013.3
20260502180548 57 0.0 0.0 0.00 0.00 0.00 47 1013.4
20260502164046 55 0.0 0.0 0.00 0.00 0.00 49 1014.2
20260502163550 56 0.0 0.0 0.00 0.00 0.00 49 1014.2
20260502163054 56 0.0 0.0 0.00 0.00 0.00 51 1014.1
20260502162548 56 0.0 0.0 0.00 0.00 0.00 51 1014.3
20260502162047 54 0.0 0.0 0.00 0.00 0.00 51 1014.6
20260502161559 54 0.0 0.0 0.00 0.00 0.00 52 1014.4
20260502161048 55 0.0 0.0 0.00 0.00 0.00 52 1014.5
20260502160548 54 0.0 0.0 0.00 0.00 0.00 50 1014.6
20260502152047 54 0.0 0.0 0.00 0.00 0.00 52 1014.3
20260502151609 54 0.0 0.0 0.00 0.00 0.00 51 1014.4
20260502151047 54 0.0 0.0 0.00 0.00 0.00 55 1014.3
20260502150551 53 0.0 0.0 0.00 0.00 0.00 55 1014.3
20260502130547 49 0.0 0.0 0.00 0.00 0.00 65 1014.4
20260502123550 48 0.0 0.0 0.00 0.00 0.00 66 1014.4
20260502123058 48 0.0 0.0 0.00 0.00 0.00 66 1014.4
20260502122603 48 0.0 0.0 0.00 0.00 0.00 67 1014.3
20260502122049 48 0.0 0.0 0.00 0.00 0.00 67 1014.3
20260502121557 48 0.0 0.0 0.00 0.00 0.00 67 1014.3
20260502121109 48 0.0 0.0 0.00 0.00 0.00 68 1014.2
20260502120546 47 0.0 0.0 0.00 0.00 0.00 68 1014.3
20260502115548 47 0.0 0.0 0.00 0.00 0.00 68 1014.2
20260502115043 47 0.0 0.0 0.00 0.00 0.00 68 1014.2
20260502114607 47 0.0 0.0 0.00 0.00 0.00 69 1014.0
20260502114047 47 0.0 0.0 0.00 0.00 0.00 69 1014.2
20260502113550 47 0.0 0.0 0.00 0.00 0.00 69 1014.2
20260502113055 47 0.0 0.0 0.00 0.00 0.00 69 1014.3
20260502112548 47 0.0 0.0 0.00 0.00 0.00 68 1014.3
20260502112046 47 0.0 0.0 0.00 0.00 0.00 68 1014.3
20260502111556 47 0.0 0.0 0.00 0.00 0.00 69 1014.2
20260502111047 47 0.0 0.0 0.00 0.00 0.00 69 1014.2
20260502110547 47 0.0 0.0 0.00 0.00 0.00 69 1014.3
20260502110054 47 0.0 0.0 0.00 0.00 0.00 69 1014.2
20260502105550 47 0.0 0.0 0.00 0.00 0.00 70 1014.2
20260502105046 47 0.0 0.0 0.00 0.00 0.00 70 1014.1
20260502104553 48 0.0 0.0 0.00 0.00 0.00 70 1014.2
20260502104046 48 0.0 0.0 0.00 0.00 0.00 70 1014.2
20260502103546 48 0.0 0.0 0.00 0.00 0.00 71 1014.0
20260502103048 48 0.0 0.0 0.00 0.00 0.00 71 1014.0
20260502102547 48 0.0 0.0 0.00 0.00 0.00 71 1014.0
20260502102046 48 0.0 0.0 0.00 0.00 0.00 71 1013.9
20260502101620 48 0.0 0.0 0.00 0.00 0.00 71 1013.8
20260502101044 48 0.0 0.0 0.00 0.00 0.00 71 1013.8
20260502100545 48 0.0 0.0 0.00 0.00 0.00 71 1013.7
20260502091048 49 0.0 0.0 0.00 0.00 0.00 77 1012.9
20260502090546 49 0.0 0.0 0.00 0.00 0.00 77 1012.9
20260502090108 49 0.0 0.0 0.00 0.00 0.00 78 1012.8
20260502080107 49 0.0 0.0 0.00 0.00 0.00 85 1012.5
20260502071044 50 0.0 0.0 0.00 0.00 0.00 84 1012.6
20260502070608 50 0.0 0.0 0.00 0.00 0.00 84 1012.6
20260502070107 50 0.0 0.0 0.00 0.00 0.00 84 1012.6
20260502065548 50 0.0 0.0 0.00 0.00 0.00 84 1012.5
20260502065047 50 0.0 0.0 0.00 0.00 0.00 83 1012.4
20260502064558 50 0.0 0.0 0.00 0.00 0.00 83 1012.6
20260502064047 50 0.0 0.0 0.00 0.00 0.00 83 1012.6
20260502063546 51 0.0 0.0 0.00 0.00 0.00 83 1012.7
20260502063057 51 0.0 0.0 0.00 0.00 0.00 83 1012.6
20260502062547 51 0.0 0.0 0.00 0.00 0.00 83 1012.5
20260502062047 51 0.0 0.0 0.00 0.00 0.00 83 1012.5
20260502061603 51 0.0 0.0 0.00 0.00 0.00 83 1012.6
20260502061044 51 0.0 0.0 0.00 0.00 0.00 83 1012.6
20260502060548 51 0.0 0.0 0.00 0.00 0.00 83 1012.5
20260502060055 52 0.0 0.0 0.00 0.00 0.00 83 1012.6
20260502055550 52 0.0 0.0 0.00 0.00 0.00 83 1012.6
20260502055105 52 0.0 0.0 0.00 0.00 0.00 83 1012.6
20260502054557 52 0.0 0.0 0.00 0.00 0.00 84 1012.7
20260502054047 52 0.0 0.0 0.00 0.00 0.00 84 1012.6
20260502053548 53 0.0 0.0 0.00 0.00 0.00 84 1012.5
20260502053053 53 0.0 0.0 0.00 0.00 0.00 84 1012.5
20260502052547 53 0.0 0.0 0.00 0.00 0.00 84 1012.7
20260502052051 53 0.0 0.0 0.00 0.00 0.00 83 1012.7
20260502051635 53 0.0 0.0 0.00 0.00 0.00 83 1012.9
20260502051048 53 0.0 0.0 0.00 0.00 0.00 83 1013.0
20260502050548 53 0.0 0.0 0.00 0.00 0.00 83 1012.9
20260502050052 54 0.0 0.0 0.00 0.00 0.00 83 1012.7
20260502045549 54 0.0 0.0 0.00 0.00 0.00 83 1012.7
20260502045047 54 0.0 0.0 0.00 0.00 0.00 82 1012.7
20260502044550 54 0.0 0.0 0.00 0.00 0.00 82 1012.8
20260502044047 54 0.0 0.0 0.00 0.00 0.00 82 1012.9
20260502043547 55 0.0 0.0 0.00 0.00 0.00 81 1012.9
20260502043103 55 0.0 0.0 0.00 0.00 0.00 81 1013.0
20260502042548 55 0.0 0.0 0.00 0.00 0.00 80 1013.0
20260502042050 55 0.0 0.0 0.00 0.00 0.00 79 1013.0
20260502041557 55 0.0 0.0 0.00 0.00 0.00 78 1013.0
20260502041048 56 0.0 0.0 0.00 0.00 0.00 77 1012.9
20260502040558 56 0.0 0.0 0.00 0.00 0.00 76 1012.8
20260502040059 56 0.0 0.0 0.00 0.00 0.00 75 1013.0
20260502035547 56 0.0 0.0 0.00 0.00 0.00 73 1013.0
20260502035047 56 0.0 0.0 0.00 0.00 0.00 71 1012.8
20260502034556 56 0.0 0.0 0.00 0.00 0.00 70 1012.5
20260502034050 56 0.0 0.0 0.00 0.00 0.00 69 1012.5
20260502033609 56 0.0 0.0 0.00 0.00 0.00 67 1012.4
20260502033058 56 0.0 0.0 0.00 0.00 0.00 65 1012.3
20260502032547 56 0.0 0.0 0.00 0.00 0.00 65 1012.2
20260502032048 56 0.0 0.0 0.00 0.00 0.00 64 1012.1
20260502031555 56 0.0 0.0 0.00 0.00 0.00 64 1012.1
20260502031048 56 0.0 0.0 0.00 0.00 0.00 63 1012.0
20260502030547 56 0.0 0.0 0.00 0.00 0.00 64 1011.8
20260502030107 56 0.0 0.0 0.00 0.00 0.00 63 1011.9
20260502025547 56 0.0 0.0 0.00 0.00 0.00 62 1011.9
20260502025048 56 0.0 0.0 0.00 0.00 0.00 61 1011.7
20260502024556 56 0.0 0.0 0.00 0.00 0.00 60 1011.7
20260502024047 56 0.0 0.0 0.00 0.00 0.00 61 1011.6
20260502023546 56 0.0 0.0 0.00 0.00 0.00 60 1011.4
20260502023126 56 0.0 0.0 0.00 0.00 0.00 59 1011.3
20260502022544 56 0.0 0.0 0.00 0.00 0.00 59 1011.2
20260502022050 56 0.0 0.0 0.00 0.00 0.00 58 1011.2
20260502021550 57 0.0 0.0 0.00 0.00 0.00 58 1011.1
20260502021047 57 0.0 0.0 0.00 0.00 0.00 58 1011.0
20260502020544 57 0.0 0.0 0.00 0.00 0.00 57 1011.0
20260502020114 57 0.0 0.0 0.00 0.00 0.00 57 1011.1
20260502015547 58 0.0 0.0 0.00 0.00 0.00 57 1011.0
20260502015047 58 0.0 0.0 0.00 0.00 0.00 57 1010.9
20260502014554 58 0.0 0.0 0.00 0.00 0.00 56 1011.0
20260502014045 58 0.0 0.0 0.00 0.00 0.00 55 1010.9
20260502013547 58 0.0 0.0 0.00 0.00 0.00 55 1010.8
20260502013102 59 0.0 0.0 0.00 0.00 0.00 55 1010.8
20260502012547 59 0.0 0.0 0.00 0.00 0.00 53 1010.8
20260502012047 59 0.0 0.0 0.00 0.00 0.00 51 1010.7
20260502011559 59 0.0 0.0 0.00 0.00 0.00 51 1010.7
20260502011046 60 0.0 0.0 0.00 0.00 0.00 52 1010.4
20260502010546 60 0.0 0.0 0.00 0.00 0.00 53 1010.2
20260502010053 60 0.0 0.0 0.00 0.00 0.00 52 1010.1
20260502005547 60 0.0 0.0 0.00 0.00 0.00 53 1010.1
20260502005050 61 0.0 0.0 0.00 0.00 0.00 52 1010.1
20260502004611 61 0.0 0.0 0.00 0.00 0.00 52 1010.0
20260502004048 61 0.0 0.0 0.00 0.00 0.00 50 1010.0
20260502003546 61 0.0 0.0 0.00 0.00 0.00 49 1009.9
20260502003057 62 0.0 0.0 0.00 0.00 0.00 49 1009.9
20260502002552 62 0.0 0.0 0.00 0.00 0.00 48 1009.9
20260502002046 62 0.0 0.0 0.00 0.00 0.00 47 1009.8
20260502001608 62 0.0 0.0 0.00 0.00 0.00 47 1009.7